Wind_Speed
13 11 8 6 4 5 5 5 5 4 5 6 7 9 11 12 13 14 15 16 16 17 17 18 19 19 20 21 21 21 21 21 22 22 22 22 22 22 23 24 25 25 25 26 27 27 28 29 30 30 31 32 32 32 33 34 35 35 36 36 36 36 37 37 38 38 39 38 38 38 37 37 37 36 36 36 36 36 36 37 37 37 38 38 38
15 14 11 9 7 6 5 5 6 5 4 5 6 8 9 10 11 12 13 14 15 15 15 16 16 16 17 18 19 19 19 19 19 20 20 20 20 20 21 22 23 24 24 25 25 26 27 28 29 30 31 31 32 33 33 34 35 36 37 38 38 38 38 38 38 38 38 37 36 36 35 35 34 34 34 34 34 34 34 35 35 35 35 34 34
17 16 14 13 11 9 6 5 5 5 5 4 3 5 7 8 9 10 10 11 12 12 13 14 14 14 14 15 15 16 17 17 17 17 18 18 18 19 19 20 21 22 23 24 24 25 26 27 28 29 30 31 31 32 33 33 34 35 35 36 37 37 37 37 36 36 36 35 34 34 33 33 32 32 32 32 32 32 32 32 32 32 31 30 30
19 17 16 16 14 12 10 7 5 5 6 5 4 2 3 5 6 7 8 8 9 9 10 11 12 12 11 12 12 13 13 14 14 14 15 15 16 17 17 18 19 19 20 21 22 23 24 25 26 26 28 29 29 29 30 31 31 32 33 33 33 34 34 34 34 33 33 33 33 32 32 32 31 30 30 30 30 30 29 29 29 28 27 27 27
22 21 19 18 17 16 14 11 8 8 9 8 7 6 4 2 2 3 4 5 6 7 7 8 9 10 10 9 9 9 10 11 11 12 12 13 13 14 15 16 17 17 18 18 19 20 21 22 23 23 24 26 26 27 28 28 29 29 30 30 30 30 31 31 31 31 31 30 30 30 30 29 29 28 28 27 27 26 26 25 25 24 24 24 24
26 25 24 22 19 18 17 15 12 12 12 13 13 9 7 6 4 2 1 1 2 4 5 6 6 7 8 8 8 7 7 7 8 9 10 10 11 11 12 13 14 14 15 15 16 16 17 18 19 20 21 22 22 23 24 24 25 26 26 27 27 27 28 28 28 28 28 28 27 27 27 26 25 25 24 23 23 23 22 22 22 21 21 20 20
29 28 28 26 24 22 20 19 17 16 15 17 17 15 11 9 8 6 5 4 3 2 1 3 5 5 5 5 5 6 6 6 5 6 7 8 9 9 9 9 10 11 12 12 12 13 13 14 15 16 17 18 18 19 20 20 21 21 22 23 23 24 24 24 25 25 25 25 24 24 24 23 23 22 21 20 19 19 18 18 18 17 17 17 17
32 30 29 30 28 26 25 24 24 21 18 18 19 18 15 13 11 10 8 7 7 6 4 2 1 3 5 4 2 3 3 4 5 5 5 5 6 7 7 7 7 7 8 9 9 10 10 10 11 12 12 13 14 15 15 16 16 17 18 18 19 20 20 20 21 21 21 21 20 21 21 20 20 19 18 17 16 15 14 14 14 13 13 13 13
34 32 31 31 31 30 28 28 28 26 22 20 19 20 19 16 15 14 12 11 10 10 8 6 3 1 2 3 2 1 2 3 3 4 4 4 4 5 6 6 5 4 4 5 6 6 7 7 7 8 8 9 10 11 11 11 12 12 13 13 14 15 16 16 16 17 17 17 16 16 16 16 16 16 15 14 13 11 11 10 9 9 9 9 9
37 36 34 33 33 33 32 32 31 29 26 23 21 22 23 20 18 17 16 15 13 13 11 9 6 4 2 1 0 1 1 3 4 4 3 3 3 3 3 4 3 3 2 2 2 3 4 5 5 5 5 5 6 6 7 7 7 8 8 8 9 9 10 11 11 12 13 13 13 13 12 12 12 11 11 11 10 9 8 7 6 5 5 5 5
39 39 37 36 36 36 36 35 34 32 29 26 24 23 24 24 22 21 20 18 17 16 15 12 10 8 6 4 3 3 2 1 2 4 5 5 4 3 1 1 3 2 1 1 1 1 2 3 4 5 5 5 5 5 4 4 4 4 4 5 5 5 6 6 6 7 7 8 9 9 9 9 9 8 8 8 8 7 6 5 3 2 1 1 1
41 41 41 39 38 38 39 39 37 35 33 30 28 27 26 25 26 26 25 23 21 20 19 17 14 12 11 10 9 8 7 6 5 5 6 7 7 7 7 5 2 3 4 3 3 3 3 3 4 4 5 6 6 6 6 5 5 5 4 4 5 5 5 5 5 5 6 6 7 7 7 7 7 7 7 7 7 7 7 7 7 6 5 4 4
44 44 43 43 41 40 40 41 40 38 35 33 32 31 30 28 27 27 28 28 27 24 23 22 20 18 16 15 14 13 12 13 12 11 11 11 10 9 9 9 7 5 5 6 5 4 3 3 3 4 4 5 6 7 8 8 8 8 8 8 8 7 7 7 7 7 7 8 8 8 8 8 8 9 9 9 9 10 10 10 11 11 11 10 10
46 46 45 44 44 42 42 42 41 38 37 35 33 33 33 32 30 28 27 29 30 30 28 27 25 23 21 20 19 18 17 18 18 16 15 15 15 13 11 11 11 9 8 8 8 7 6 4 3 3 4 5 6 7 8 10 10 10 10 11 10 10 10 10 10 10 10 10 10 10 10 10 10 11 11 12 12 13 13 14 14 15 15 16 15
49 50 48 46 45 44 42 41 40 38 37 35 34 33 34 35 34 32 29 28 31 34 34 33 31 28 26 25 24 23 22 22 21 21 20 20 19 18 16 14 13 13 12 11 10 10 9 8 6 5 5 5 6 7 9 10 10 11 11 11 11 11 11 12 13 13 13 12 12 12 13 13 13 13 14 15 15 16 17 18 18 18 18 19 19
52 51 50 47 46 46 45 43 41 39 38 37 35 34 34 34 35 34 31 29 31 35 38 38 36 33 32 30 28 27 27 26 25 24 23 24 24 23 21 18 17 16 16 15 15 14 12 11 10 9 8 7 7 8 9 9 9 9 10 11 12 12 12 13 15 16 15 15 15 15 16 17 17 17 18 19 20 20 21 22 23 23 22 21 21
56 54 53 50 49 50 50 47 44 42 41 40 38 36 34 34 35 35 32 31 33 37 41 42 40 37 36 34 32 30 30 30 28 26 25 26 27 27 25 23 21 20 19 19 19 18 16 14 13 12 11 10 10 11 11 10 9 9 9 9 10 11 12 14 17 17 16 16 16 17 18 19 20 20 20 21 22 22 20 20 22 23 23 23 23
59 59 58 56 54 56 56 52 47 46 45 44 42 40 38 37 36 35 34 35 38 41 43 45 44 40 39 38 36 34 33 33 31 29 28 28 29 29 28 27 25 23 23 23 22 21 20 18 17 16 14 12 12 13 14 14 13 12 12 11 10 10 11 14 17 17 17 17 18 18 19 20 21 22 21 21 21 22 20 19 20 21 21 21 22
61 61 61 61 60 61 60 56 53 50 49 48 47 46 44 42 41 40 39 40 42 45 46 47 47 44 43 42 40 37 36 35 34 33 31 30 29 30 30 30 28 26 26 26 25 24 23 23 22 21 19 16 15 16 16 17 16 15 15 15 14 12 13 15 17 16 16 17 17 18 20 21 22 23 23 22 22 23 23 22 21 21 21 20 20
68 66 65 65 66 66 65 63 60 56 53 52 52 51 49 47 46 47 45 45 47 48 49 49 50 48 47 46 44 41 37 36 36 35 34 32 31 31 32 33 32 30 29 29 28 27 25 24 25 25 24 22 20 20 20 21 20 19 19 19 18 17 17 18 19 19 18 18 18 18 19 19 20 22 23 24 24 24 25 26 24 23 22 22 21
75 73 71 71 71 70 69 68 67 64 60 57 55 55 53 51 51 52 52 50 50 50 50 51 52 51 50 48 47 45 41 39 38 37 37 35 34 34 35 36 36 35 34 33 32 30 29 27 26 26 27 26 24 23 23 24 25 25 24 23 22 21 21 21 21 21 22 22 21 21 21 20 19 20 21 23 23 25 27 29 28 26 25 25 23
79 78 77 75 75 74 73 73 72 70 67 65 63 61 60 58 57 58 58 57 55 53 52 51 51 53 53 51 50 49 47 44 43 42 42 42 40 39 40 41 41 40 39 38 36 34 33 32 31 30 29 28 26 24 23 24 26 27 28 28 28 27 26 24 24 23 24 25 25 25 24 23 23 22 22 22 22 23 26 29 30 30 30 29 28
83 82 81 80 79 77 76 76 76 74 72 72 71 69 68 67 66 65 65 64 62 61 59 55 53 54 55 55 55 54 52 50 49 48 48 47 46 46 45 46 46 45 44 43 41 38 38 38 37 36 35 32 29 26 24 23 24 27 29 31 32 32 31 30 29 28 27 27 28 28 27 26 26 26 25 25 24 24 24 26 28 31 32 33 33
84 84 83 82 81 80 78 77 76 74 73 74 75 74 72 72 72 73 73 71 68 67 65 62 58 56 55 57 58 58 58 56 55 54 53 52 51 50 49 48 48 49 49 48 45 43 42 42 41 41 40 38 35 31 28 26 26 27 30 32 34 35 36 36 35 34 32 31 31 31 30 29 28 28 28 28 27 27 26 26 27 28 31 33 35
84 85 85 84 83 82 81 81 79 78 77 77 77 76 75 75 75 76 77 77 75 73 70 67 63 60 58 57 59 60 62 61 59 58 58 57 56 53 50 49 50 52 52 51 49 48 47 47 46 45 44 43 41 38 35 32 31 31 32 33 35 37 38 39 39 38 37 36 35 34 33 32 31 31 30 30 29 29 28 28 29 29 30 32 34
89 88 89 89 88 86 86 86 85 84 84 83 82 79 77 77 78 78 79 80 80 78 76 71 67 63 61 60 60 61 63 64 64 62 62 62 61 58 54 53 54 55 55 54 53 52 53 53 52 51 49 48 47 46 43 40 38 38 39 39 39 40 40 41 42 42 41 41 40 38 37 36 35 34 33 33 32 32 31 31 32 32 32 32 34
96 94 93 94 94 93 92 91 90 90 90 90 89 85 82 80 80 81 81 82 82 81 80 75 69 65 63 62 63 64 64 66 67 68 67 67 66 64 60 58 57 58 58 58 56 56 57 58 58 56 55 54 53 52 50 47 45 44 45 45 46 45 45 45 45 46 47 47 46 45 44 43 41 40 39 38 36 35 35 34 34 35 35 35 36
100 98 96 95 96 96 96 96 94 94 94 94 93 91 87 85 84 83 84 84 84 84 82 78 73 68 66 65 66 68 68 68 70 72 72 72 71 70 67 65 63 61 61 61 61 60 60 61 63 62 60 59 57 56 55 54 51 50 50 51 51 52 52 51 50 50 51 52 52 52 51 51 50 48 47 45 43 41 40 38 37 36 35 35 37
103 102 101 98 96 96 97 97 96 96 96 96 96 95 92 90 89 88 87 87 88 87 85 81 77 75 72 70 70 71 73 73 73 74 75 76 76 75 73 71 70 68 67 66 67 66 65 64 66 66 64 63 62 61 61 61 60 58 57 56 56 56 57 57 57 55 54 54 55 56 56 56 55 54 52 51 50 48 47 44 42 40 38 38 39
106 106 106 105 102 99 97 97 97 97 98 98 98 97 96 94 93 93 92 92 92 92 90 88 85 83 80 76 74 74 75 77 77 77 78 79 79 79 79 78 77 77 77 75 73 73 72 70 69 69 68 67 67 67 68 69 69 69 67 64 63 63 63 63 63 62 61 59 58 58 59 59 59 58 57 56 55 54 53 52 49 47 46 46 48
110 109 108 108 108 106 104 101 99 99 99 99 98 99 99 98 97 97 97 97 96 96 95 94 93 92 90 85 80 78 78 80 81 81 82 82 82 82 83 83 83 83 83 82 80 79 78 78 76 75 74 73 73 74 75 75 76 76 74 72 71 70 69 69 69 69 68 66 63 62 62 62 62 63 62 62 61 60 59 58 57 56 55 56 57
113 113 112 111 110 110 110 109 106 104 102 101 100 100 100 101 100 100 100 100 100 100 100 100 100 100 98 94 88 84 81 82 83 85 85 86 86 86 86 86 86 86 86 86 85 84 84 84 84 84 84 83 83 83 83 83 82 82 81 80 79 79 78 77 77 77 76 75 73 71 69 67 66 66 66 66 67 67 66 65 64 63 62 63 64
114 116 116 116 115 114 113 113 113 111 109 107 105 105 105 105 105 105 104 104 104 105 105 106 107 107 106 102 97 92 88 86 86 87 88 89 89 89 90 90 91 91 91 91 91 91 90 91 92 92 93 93 93 93 92 90 90 89 88 88 87 86 86 85 84 83 83 83 83 82 80 78 75 73 71 70 70 70 71 71 71 70 69 69 69
116 116 117 118 119 119 118 118 117 117 117 116 114 113 113 113 113 112 112 112 111 112 112 113 113 114 114 113 110 107 104 100 97 95 94 94 94 94 94 95 95 95 95 95 96 97 97 97 98 98 99 100 100 99 98 97 96 95 95 94 93 92 92 91 90 90 90 90 90 90 89 88 86 84 81 78 76 74 74 75 76 76 75 74 74
118 118 119 119 120 121 122 123 123 123 122 122 122 121 121 121 121 120 120 119 119 119 119 119 119 119 119 120 120 119 117 115 112 108 105 103 102 102 102 102 101 101 101 101 102 102 103 103 103 103 103 103 103 102 101 100 100 100 99 99 98 98 98 98 98 98 98 97 96 96 95 94 93 92 91 89 87 84 82 81 80 80 80 80 79
121 121 121 121 121 121 122 124 126 127 127 127 127 126 126 125 125 125 125 125 125 125 125 125 125 125 125 124 125 125 124 124 123 120 117 114 112 111 110 111 111 111 111 110 110 109 108 108 108 107 106 105 105 105 106 106 106 106 106 106 106 106 106 106 105 105 105 104 103 102 101 100 99 97 96 96 96 95 93 90 86 84 83 83 83
123 123 123 123 123 123 124 124 126 127 129 130 131 131 130 129 129 129 129 129 129 129 130 130 130 130 130 130 129 130 129 128 128 127 126 124 122 120 118 117 117 117 117 116 116 115 114 114 114 114 113 112 112 113 114 114 114 114 114 114 114 113 113 112 112 111 111 110 109 108 107 106 105 104 102 101 101 102 101 99 95 91 89 88 87
124 124 125 125 125 125 126 126 126 127 128 130 131 132 133 134 134 134 134 134 134 134 134 134 133 133 133 133 133 133 133 133 132 131 131 130 130 128 126 125 123 122 122 122 121 121 121 121 120 120 120 120 120 120 120 119 119 118 118 118 119 119 118 118 118 117 117 116 115 115 114 113 112 111 109 108 108 108 107 105 102 99 96 94 92
125 125 126 126 126 127 127 127 128 129 129 130 130 131 132 133 134 134 135 136 136 137 137 137 137 136 136 135 135 135 136 136 135 135 135 134 134 133 133 132 130 129 128 127 127 127 127 127 127 127 127 127 126 126 125 125 124 123 123 122 123 123 123 123 123 123 123 122 122 121 120 119 118 117 116 115 114 112 111 108 106 103 101 99 97
125 126 126 126 127 127 128 128 129 130 130 131 131 132 132 133 133 133 134 134 135 136 137 137 137 138 138 137 137 137 137 138 138 138 137 137 136 135 134 134 133 133 132 131 130 130 130 131 131 132 132 132 132 132 132 131 130 130 129 128 128 128 128 128 129 128 128 128 127 126 125 124 123 123 121 120 119 117 114 111 108 106 103 101 99
128 128 128 127 127 127 128 129 130 130 131 131 132 132 133 133 134 134 134 135 135 136 136 137 137 137 137 137 137 137 137 138 138 138 137 137 136 136 135 134 134 134 134 133 133 133 133 133 133 133 133 134 134 134 134 134 135 134 134 134 134 133 133 132 131 130 130 129 129 129 128 128 127 126 125 123 122 119 116 112 109 106 104 101 99
130 130 130 130 130 130 129 130 130 131 131 132 132 133 133 134 134 135 135 136 136 137 137 138 138 138 138 138 138 138 138 138 138 138 138 137 137 136 136 135 135 135 135 135 135 135 135 135 135 135 135 134 134 134 134 134 134 134 133 133 133 132 131 130 129 128 128 127 128 128 128 127 126 125 124 123 121 118 115 112 110 108 105 103 101
131 131 131 131 132 132 132 132 132 132 132 133 133 133 134 134 135 135 136 137 137 138 138 139 139 139 140 140 140 140 141 141 140 140 140 139 139 139 138 138 138 137 137 137 137 137 137 137 137 137 137 136 136 136 135 135 135 134 133 133 132 131 130 130 129 129 128 128 127 127 127 126 125 124 123 122 120 118 116 114 112 110 108 106 105
131 132 132 133 133 133 134 134 134 135 135 135 135 135 135 135 135 136 136 137 137 138 139 139 140 140 140 140 141 142 142 143 143 143 142 142 142 142 141 141 141 141 141 141 141 140 140 140 140 140 139 139 138 138 138 137 137 136 135 135 134 133 132 132 131 130 130 130 129 129 128 128 127 126 125 123 122 120 118 116 114 113 111 110 109
128 129 131 132 133 134 134 135 135 136 136 136 137 137 137 137 137 137 137 138 138 138 139 139 140 140 140 141 141 142 143 143 144 144 144 144 144 144 144 143 143 143 143 143 144 144 144 143 143 143 143 143 142 142 141 141 140 139 138 138 137 136 136 135 134 133 133 132 131 131 130 130 130 129 128 127 126 124 122 120 118 116 114 113 112
126 127 128 129 130 131 133 134 135 136 136 137 137 138 138 138 139 139 139 140 140 140 140 140 141 141 141 141 142 142 142 143 144 144 145 145 145 145 145 145 145 145 145 145 145 145 145 145 145 145 145 145 145 145 144 144 143 143 142 141 140 140 139 138 137 137 136 136 135 134 133 133 132 132 131 130 129 128 127 125 124 122 120 118 116
125 125 126 126 127 128 130 131 132 133 134 135 136 137 137 138 139 139 140 140 141 141 142 142 142 143 143 143 144 144 144 144 145 145 145 145 145 145 145 145 145 145 145 145 145 145 145 146 146 146 146 146 146 146 145 145 145 144 144 143 143 142 142 141 140 140 139 139 138 138 137 137 136 135 135 134 133 132 131 130 128 127 126 123 121
124 125 125 125 126 126 127 128 129 130 131 132 133 134 135 136 137 138 138 139 140 141 141 142 143 143 144 144 145 145 146 146 146 147 147 147 147 147 147 147 147 147 147 147 147 147 146 146 146 146 146 146 146 145 145 144 144 144 144 143 143 142 142 142 141 141 140 140 139 139 139 139 139 138 138 138 137 136 135 133 132 131 130 129 127
120 122 123 124 125 126 126 127 127 128 128 129 129 130 131 132 132 134 135 136 137 138 139 140 141 142 143 143 144 145 145 146 146 147 147 147 148 148 148 149 149 149 149 149 149 148 148 148 148 148 147 147 147 146 146 146 145 145 144 144 143 143 142 142 141 141 140 139 139 139 138 138 138 139 139 140 140 139 138 137 136 135 134 132 131
111 113 116 118 120 122 123 124 125 126 127 127 128 128 128 129 129 130 131 132 133 134 135 136 137 138 139 140 141 142 142 143 144 144 145 145 146 147 147 148 148 148 148 149 149 148 148 148 148 147 147 147 147 146 146 146 146 145 145 144 144 144 144 143 143 142 141 140 140 139 138 138 138 138 138 139 139 140 140 140 139 138 137 135 134
103 105 107 109 111 113 116 117 119 121 122 123 124 125 126 126 127 128 128 129 130 130 131 132 133 133 134 135 136 136 137 138 138 139 140 140 141 142 143 143 144 145 145 146 146 146 146 145 145 145 145 144 144 144 144 144 144 144 144 143 143 143 143 143 143 143 143 142 141 140 140 139 139 138 138 139 139 139 139 139 139 139 139 138 136
Wind_Direction
278 284 290 294 304 323 337 348 357 18 39 44 52 64 70 72 73 70 68 68 70 74 76 75 73 72 70 69 69 70 70 71 70 70 70 70 69 69 69 69 67 66 67 68 69 69 69 68 68 68 68 68 69 71 74 76 78 79 81 82 83 84 86 87 88 88 89 89 90 91 91 91 91 93 94 95 97 98 100 101 102 102 101 100 99
265 271 274 275 277 290 313 330 338 347 3 23 38 50 58 66 73 75 73 70 69 70 74 77 77 76 75 73 72 71 70 70 70 70 69 69 68 67 67 67 66 65 64 65 66 67 68 68 69 69 69 70 71 72 74 77 79 81 84 86 88 89 89 90 91 92 92 93 93 94 94 95 95 97 98 99 100 101 103 104 104 103 101 100 98
250 258 264 266 265 270 282 298 316 326 328 334 2 27 40 50 62 73 78 78 76 73 72 76 77 77 78 77 75 74 74 72 71 70 70 69 68 67 65 64 63 63 63 62 63 63 65 67 69 70 71 73 75 76 77 80 82 85 87 90 93 94 95 96 96 97 97 97 97 97 97 98 99 100 101 102 103 103 104 104 104 102 100 98 96
245 249 255 261 265 267 269 272 283 299 300 289 278 294 1 29 45 62 71 77 81 81 78 80 81 81 79 79 77 76 77 76 74 72 71 71 70 68 67 65 63 61 60 60 61 62 63 65 68 71 73 75 78 80 82 85 87 90 92 94 96 98 100 101 101 101 101 101 102 102 102 102 102 102 103 104 104 103 103 102 101 99 97 97 96
249 249 250 255 261 268 268 268 278 292 292 282 267 250 240 260 27 52 61 66 70 73 76 80 85 89 89 87 85 80 77 76 75 74 73 71 70 70 69 68 66 64 62 61 61 62 64 66 68 72 76 79 82 85 87 91 93 95 96 97 99 101 103 104 105 105 105 104 105 106 106 105 104 104 104 103 102 101 99 97 96 95 93 94 93
250 250 250 250 253 261 268 270 278 289 290 286 280 262 235 222 214 202 193 126 78 59 58 61 67 79 92 97 97 95 90 80 71 69 69 69 69 69 70 71 71 69 67 65 64 65 66 69 72 75 79 82 86 88 91 94 97 99 101 103 105 106 108 109 109 110 109 108 108 108 108 107 106 107 106 104 101 98 95 94 93 91 89 89 88
250 250 249 250 251 253 258 263 269 276 281 282 280 271 251 232 222 217 218 215 213 204 83 54 44 44 57 81 93 96 102 101 90 74 64 60 61 63 66 72 75 76 73 70 68 68 69 71 75 80 83 86 89 92 96 99 100 102 105 108 110 112 114 115 116 116 115 114 113 113 113 110 109 110 111 109 106 101 97 95 93 88 86 85 84
248 249 248 249 251 252 253 256 259 264 271 276 278 275 263 245 235 231 227 229 238 237 226 201 73 41 29 29 41 61 75 92 104 103 90 73 62 56 55 58 69 80 83 82 78 76 74 74 78 83 87 92 96 99 101 104 106 107 109 112 115 118 120 122 123 123 123 122 122 123 121 119 116 115 114 113 112 107 104 101 96 91 87 84 81
246 248 248 247 249 252 254 255 257 261 265 270 275 279 272 254 241 240 238 234 241 246 244 236 218 157 55 36 9 345 15 35 58 86 102 103 92 77 65 53 47 55 76 93 99 98 96 92 90 90 92 96 102 107 109 109 110 113 114 115 118 122 125 127 130 132 132 132 132 132 132 131 129 127 124 121 117 111 108 106 100 95 90 84 79
244 246 246 245 246 249 252 254 256 258 261 263 270 279 279 265 248 243 245 242 242 248 253 250 239 223 195 133 124 282 360 23 22 24 39 65 85 100 103 94 75 49 44 70 106 126 133 132 129 123 117 115 116 117 121 122 123 123 125 123 122 126 129 133 136 139 141 143 144 145 146 147 146 145 144 143 140 131 121 113 104 93 86 81 74
242 243 243 243 243 245 248 251 253 255 255 257 261 268 273 269 255 244 244 247 249 252 255 256 249 238 232 226 228 244 260 303 355 360 359 359 356 344 321 159 148 148 168 184 183 202 203 190 178 172 166 164 163 160 157 156 153 153 153 153 152 149 147 149 151 153 156 159 161 164 167 168 170 171 171 174 176 175 171 167 161 145 112 52 16
241 241 241 242 242 243 245 248 251 253 251 252 254 256 258 259 253 244 241 242 247 249 251 253 251 245 244 245 245 253 262 267 271 285 305 318 321 320 315 302 248 199 204 214 211 210 226 241 235 220 208 201 199 198 200 202 205 208 210 207 205 203 199 195 191 190 190 191 192 195 198 202 206 210 214 216 218 220 218 219 224 227 233 248 263
242 243 242 241 241 243 245 247 249 251 249 248 250 251 249 248 246 245 243 240 240 244 246 249 250 247 246 247 248 252 260 264 265 266 270 279 286 293 301 302 290 258 224 219 223 225 232 254 272 274 261 246 235 227 225 223 223 223 226 228 231 232 232 231 229 225 222 219 219 221 223 227 231 236 242 247 251 254 254 251 250 249 248 249 253
243 244 244 243 242 243 246 246 248 249 247 245 247 249 246 242 241 245 245 240 239 240 241 243 246 246 246 246 247 248 252 257 262 264 267 271 273 274 279 288 290 278 250 230 224 225 230 242 272 299 305 296 279 264 254 247 243 239 238 237 239 243 246 248 246 244 242 241 241 242 242 242 245 247 249 253 256 258 260 260 259 259 258 257 255
240 243 244 244 243 244 245 245 246 247 244 241 242 245 243 240 239 243 246 243 242 241 240 239 240 242 244 244 245 247 248 251 255 260 266 271 273 271 269 272 279 278 268 253 240 232 232 233 240 259 283 300 300 291 282 274 267 263 260 260 258 258 261 263 260 256 254 253 254 256 256 256 258 261 262 264 265 266 267 265 261 258 260 261 261
236 239 241 242 243 244 244 244 245 246 244 239 239 240 240 238 238 241 244 244 243 242 241 240 239 240 241 241 242 246 249 250 252 256 263 269 271 268 264 263 267 273 272 264 254 247 244 241 239 242 250 260 271 279 287 292 290 283 276 274 272 269 269 270 269 266 263 263 264 265 265 264 265 269 272 273 274 274 273 272 268 261 258 259 263
233 235 237 239 241 243 243 242 241 242 241 238 235 235 236 236 237 240 242 242 242 241 239 239 240 242 243 242 242 244 247 249 252 255 262 266 267 264 262 260 261 265 269 268 263 258 255 253 252 251 250 253 256 262 271 281 289 290 285 279 276 273 268 266 269 273 274 274 274 273 272 272 271 273 276 277 278 278 276 274 272 269 263 260 263
232 233 234 234 235 238 240 239 236 236 236 235 232 230 231 232 233 234 235 236 239 240 238 236 238 242 245 246 246 244 245 248 250 253 257 260 261 261 259 258 259 262 264 266 266 262 258 256 257 257 256 257 261 266 270 273 276 280 282 283 284 282 274 269 273 280 283 282 282 280 279 280 279 280 282 282 283 284 283 280 277 276 273 269 267
231 231 232 232 234 237 239 238 236 236 235 233 231 229 230 231 229 227 227 230 235 238 237 236 237 240 243 246 247 246 245 247 248 250 251 250 253 258 259 256 257 260 262 263 263 262 259 255 255 257 256 257 261 266 271 274 275 275 277 280 281 281 278 276 279 283 283 283 284 283 282 283 284 286 288 288 288 289 290 288 284 282 280 278 275
232 232 232 233 235 238 240 239 238 237 237 235 232 231 232 234 230 226 225 228 233 236 238 237 238 240 242 244 245 245 244 244 245 247 246 244 246 253 257 256 254 256 259 260 259 259 258 257 256 257 256 256 258 262 266 271 274 274 275 277 277 276 275 275 276 279 279 281 283 284 285 286 286 287 288 289 290 290 290 290 289 287 285 282 279
233 234 234 235 236 238 239 240 239 237 237 237 236 236 237 238 234 228 227 229 233 236 238 238 239 240 241 242 243 243 242 242 242 243 242 241 243 247 251 252 251 251 254 255 253 253 255 256 257 257 256 256 257 259 263 268 272 275 276 277 277 276 274 273 273 274 276 277 278 280 283 286 286 286 288 288 288 286 286 289 291 292 290 287 282
232 234 235 236 237 238 239 240 240 238 237 238 239 240 242 243 240 235 232 232 234 237 238 239 240 240 240 242 242 241 240 241 243 242 240 240 241 243 246 249 248 247 249 251 249 248 250 253 255 256 255 253 253 256 260 265 270 275 277 278 278 278 276 275 274 274 275 276 276 277 278 280 281 283 284 285 284 282 281 284 288 290 291 290 287
232 234 235 236 238 239 240 241 241 239 238 238 239 240 242 244 244 242 238 237 237 239 240 241 241 242 242 242 243 242 241 241 242 242 240 238 238 240 242 245 246 246 247 248 247 245 246 248 251 254 254 252 251 250 253 259 266 272 276 278 279 279 278 277 275 274 274 275 276 277 277 277 278 279 279 279 280 280 280 281 282 284 286 287 288
232 233 234 236 237 238 239 240 240 240 239 239 239 240 240 242 243 244 242 240 239 240 241 243 244 245 245 244 244 243 243 243 242 242 241 239 238 239 241 243 245 245 246 247 246 245 244 245 248 251 252 252 251 249 249 252 259 266 271 275 278 279 278 277 276 275 273 272 273 275 276 277 278 277 277 276 276 276 276 277 279 279 280 281 283
233 233 234 236 237 237 237 239 240 241 242 241 240 239 239 240 241 243 243 241 240 240 242 244 246 247 248 247 246 245 244 244 243 242 242 241 241 241 241 243 244 245 246 247 247 246 246 245 245 246 247 248 248 249 250 252 256 262 266 271 275 277 277 277 277 276 275 273 272 272 273 274 276 277 277 277 277 276 275 275 276 276 277 277 277
235 235 235 236 237 237 238 239 241 243 244 243 240 239 238 238 238 239 240 241 241 241 242 245 247 248 249 249 249 248 246 245 243 242 242 242 242 243 241 241 242 244 246 246 246 245 246 247 247 247 249 249 248 247 249 252 256 261 265 268 271 274 275 276 277 276 276 276 274 272 271 272 273 274 275 276 276 277 277 277 277 276 275 276 276
235 236 237 237 237 237 238 240 241 243 243 243 241 240 238 236 236 236 237 239 240 240 242 244 247 249 250 250 251 251 250 247 245 244 242 242 242 243 242 241 240 241 243 244 244 244 246 247 248 249 252 253 251 248 248 250 255 259 263 267 269 271 274 275 275 275 276 276 275 273 272 272 273 273 273 274 274 274 274 275 276 277 277 277 277
235 235 236 237 237 237 238 240 241 241 241 241 241 240 238 236 235 234 235 237 238 240 241 243 245 248 250 251 252 252 252 250 248 246 244 243 243 243 243 242 241 241 242 244 243 243 244 245 246 248 251 251 251 249 247 249 253 257 259 263 266 269 272 273 274 274 275 275 275 274 273 273 273 273 274 274 274 273 272 271 271 273 275 276 277
234 235 235 235 236 237 238 239 240 240 239 239 239 239 238 236 235 234 235 236 237 239 240 241 244 247 249 250 251 251 252 252 250 248 246 245 244 244 243 243 242 243 245 246 245 243 242 243 244 247 248 249 249 249 249 250 254 256 257 258 261 265 267 269 271 272 273 274 274 274 274 274 274 274 274 273 273 273 272 271 270 269 271 273 276
233 234 235 235 236 236 237 238 239 239 238 237 237 238 237 235 234 234 235 236 237 238 239 240 243 246 248 249 250 250 250 251 251 249 248 247 246 245 244 244 245 246 248 249 248 245 243 243 244 246 247 248 250 251 252 254 257 258 259 259 260 262 263 265 267 269 271 272 272 272 273 273 274 274 274 273 273 272 272 271 270 269 270 272 275
232 233 234 235 236 236 237 237 237 238 237 237 236 237 236 235 234 234 235 235 237 238 239 240 243 246 249 250 249 249 249 250 251 250 249 248 247 246 246 246 247 248 249 250 250 248 246 245 245 246 248 250 251 253 254 256 258 259 260 261 261 262 263 263 264 267 269 271 271 271 271 272 273 274 274 275 274 273 272 271 270 269 269 271 274
234 233 233 234 235 236 237 237 237 237 237 236 236 236 237 237 236 236 236 236 237 238 240 242 244 247 249 250 250 249 248 249 250 250 249 248 248 247 247 246 246 247 248 249 249 249 248 248 248 248 249 251 253 255 256 257 258 259 260 261 262 263 264 264 265 267 269 270 271 271 271 270 270 271 273 274 275 275 274 273 271 270 270 270 272
236 236 235 235 235 235 236 237 238 237 237 237 237 237 238 239 239 239 239 239 239 240 242 244 246 248 250 250 250 249 249 250 250 250 249 248 247 247 247 247 247 247 248 248 248 249 249 250 250 251 252 253 254 255 256 257 259 260 262 263 263 264 264 265 266 267 268 270 271 272 272 272 271 270 271 271 273 274 275 274 273 272 271 271 272
237 237 237 237 236 236 237 237 237 238 238 238 239 239 240 241 242 242 243 243 243 244 244 245 247 249 251 252 252 251 251 251 251 251 250 249 248 247 247 248 248 249 249 249 250 250 251 252 252 253 254 255 256 257 258 259 261 263 264 265 265 266 266 266 267 268 269 270 271 272 273 274 274 274 273 272 272 272 274 274 273 273 273 273 272
238 238 238 238 238 238 238 238 238 238 239 239 240 241 242 242 243 244 245 245 246 246 247 247 248 249 251 252 253 254 254 254 254 253 253 251 250 249 249 249 250 250 251 252 253 253 253 254 254 255 255 256 257 258 260 261 262 263 264 265 266 267 268 268 269 270 271 271 272 272 273 274 275 275 276 276 275 275 275 274 273 272 272 272 273
239 239 239 239 239 239 239 239 239 239 239 240 241 241 242 243 244 245 246 246 247 247 248 249 250 250 251 253 254 255 256 257 258 257 256 255 254 253 252 252 252 253 254 254 255 255 255 255 255 256 256 256 257 259 260 262 262 263 263 264 265 266 267 267 268 269 270 271 271 272 272 273 273 274 274 275 276 276 277 277 275 272 271 271 271
241 241 240 240 240 240 240 240 240 240 240 241 241 242 243 243 244 245 246 247 248 248 249 249 250 251 252 253 254 255 256 257 258 259 259 259 258 257 256 255 255 255 255 256 256 256 256 256 256 256 256 256 257 258 260 261 262 263 264 265 265 266 266 267 267 268 269 270 270 271 271 272 272 272 273 273 274 275 276 277 276 274 272 271 270
243 243 242 242 242 241 241 241 241 241 242 242 242 243 243 244 245 246 247 248 249 249 250 250 250 251 251 252 254 255 256 257 257 258 259 260 260 260 260 259 258 257 257 257 257 257 257 258 258 258 258 258 258 258 259 260 261 262 263 265 266 267 267 268 268 269 269 270 270 271 271 271 272 272 272 273 273 274 275 276 276 275 274 273 272
244 244 244 244 244 243 243 243 243 243 243 243 243 244 244 245 245 246 247 248 248 249 250 250 251 251 252 252 253 254 255 256 257 257 258 259 259 260 260 261 260 260 259 259 258 258 258 258 259 259 259 260 260 260 260 260 261 261 262 263 264 266 267 268 268 269 269 270 270 271 271 271 272 272 273 273 274 274 275 275 275 275 274 273 273
244 245 245 245 245 245 245 245 245 245 245 245 245 245 245 246 246 247 247 248 248 249 249 250 251 251 252 252 253 253 254 254 255 256 257 257 258 258 259 260 260 260 260 260 260 259 259 259 259 259 260 260 260 260 261 261 261 262 262 263 263 264 265 266 267 268 269 269 270 270 270 271 271 272 272 273 274 274 275 275 274 274 274 273 272
245 245 246 246 246 246 246 247 247 247 247 247 247 247 247 247 247 248 248 248 249 249 250 250 251 251 252 252 253 253 254 254 255 255 256 256 257 257 258 258 259 259 260 260 260 260 260 260 260 260 260 261 261 261 261 261 261 262 262 263 264 264 265 266 266 266 267 268 268 269 270 270 271 271 272 272 273 273 273 273 273 273 272 272 272
246 246 247 247 247 247 247 247 248 248 248 248 249 249 249 249 249 249 249 249 250 250 251 251 252 252 253 253 253 254 254 254 255 255 256 256 257 257 257 258 258 258 259 259 260 260 260 261 261 261 261 261 262 262 262 262 262 262 263 263 264 264 265 265 266 266 266 267 267 268 268 269 269 270 270 271 271 272 272 272 272 272 271 271 271
247 247 247 248 248 248 248 248 248 248 249 249 250 250 250 250 250 251 251 251 251 251 252 252 253 253 253 254 254 255 255 256 256 256 256 257 257 257 257 258 258 258 258 259 259 260 260 260 261 261 261 261 262 262 262 263 263 263 263 264 264 264 265 265 265 266 266 266 267 267 268 268 269 269 269 269 270 270 270 270 270 270 270 270 270
248 248 248 248 248 249 249 249 249 249 249 250 250 250 251 251 251 252 252 252 253 253 253 253 254 254 254 255 255 256 256 257 257 257 257 257 258 258 258 258 258 259 259 259 259 260 260 260 261 261 261 262 262 262 262 263 263 263 264 264 264 265 265 265 265 265 265 266 266 266 267 267 268 268 268 269 269 269 269 269 269 269 269 269 269
248 249 249 249 249 250 250 250 250 250 251 251 251 251 251 252 252 252 253 253 253 254 254 255 255 255 255 256 256 256 257 257 258 258 258 258 259 259 259 259 259 259 260 260 260 260 260 261 261 261 262 262 262 262 263 263 263 263 263 264 264 264 264 265 265 265 265 265 265 265 266 266 267 267 267 268 268 268 268 268 268 268 268 268 268
249 249 250 250 250 251 251 251 251 252 252 252 252 252 253 253 253 253 253 254 254 254 255 255 256 256 256 257 257 257 258 258 258 259 259 260 260 260 260 260 260 261 261 261 261 261 261 261 262 262 262 262 262 262 263 263 263 263 263 264 264 264 264 264 264 264 265 265 265 265 265 265 266 266 266 266 267 267 267 267 268 267 267 267 266
250 250 251 251 251 251 252 252 252 253 253 253 254 254 254 254 255 255 255 255 255 255 256 256 256 256 257 257 257 258 258 258 259 259 260 260 261 261 261 261 261 261 262 262 262 262 262 262 263 263 263 263 263 263 263 263 263 263 264 264 264 264 264 264 264 264 264 264 264 265 265 265 265 265 266 266 266 266 266 266 266 266 267 267 266
251 251 252 252 252 252 253 253 253 253 254 254 254 255 255 255 256 256 256 257 257 257 257 257 257 258 258 258 258 258 259 259 259 260 260 260 261 261 261 262 262 262 262 262 262 263 263 263 263 263 263 264 264 264 264 264 264 264 264 264 264 264 264 264 264 264 264 263 263 264 264 264 264 265 265 265 265 265 265 265 265 265 265 265 265
251 251 252 252 253 253 253 253 254 254 254 255 255 255 256 256 256 257 257 257 258 258 258 259 259 259 259 260 260 260 260 260 260 260 261 261 261 262 262 262 262 262 263 263 263 263 263 263 263 263 264 264 264 264 264 265 265 265 265 265 265 265 265 265 264 264 264 264 263 263 263 263 263 263 264 264 264 265 265 265 265 264 264 264 264
250 251 251 252 253 253 254 254 254 255 255 255 256 256 256 256 257 257 257 258 258 258 259 259 259 260 260 260 260 261 261 261 261 261 261 262 262 262 262 262 263 263 263 263 263 263 263 264 264 264 264 264 264 265 265 265 265 265 265 265 265 265 265 265 265 265 264 264 263 263 263 262 262 262 262 262 262 263 263 264 264 264 264 264 263
251 251 251 251 252 252 253 254 254 255 255 256 256 256 257 257 257 258 258 258 259 259 259 259 260 260 260 260 261 261 261 261 262 262 262 262 263 263 263 263 263 263 263 263 264 264 264 264 264 265 265 265 265 265 266 266 266 266 266 266 266 266 266 265 265 265 264 264 263 263 262 262 262 261 261 261 261 261 261 262 262 263 263 263 263
Height
11030 11031 11032 11032 11032 11033 11034 11035 11035 11036 11036 11036 11036 11036 11036 11035 11035 11034 11034 11034 11033 11033 11032 11032 11031 11031 11030 11030 11029 11028 11027 11027 11026 11025 11024 11023 11022 11021 11020 11019 11018 11018 11017 11017 11016 11016 11015 11015 11015 11015 11015 11015 11014 11014 11013 11012 11011 11010 11009 11008 11007 11007 11006 11006 11007 11007 11008 11008 11009 11009 11010 11010 11010 11011 11011 11011 11011 11011 11011 11010 11011 11011 11010 11010 11009
11029 11029 11030 11031 11031 11032 11033 11034 11035 11036 11036 11036 11037 11037 11036 11036 11035 11035 11035 11035 11035 11034 11034 11033 11033 11032 11032 11032 11031 11030 11029 11029 11028 11027 11026 11026 11025 11024 11023 11022 11021 11020 11020 11019 11019 11019 11018 11018 11018 11018 11018 11018 11018 11018 11017 11017 11016 11015 11015 11014 11013 11013 11012 11012 11012 11012 11012 11013 11013 11014 11014 11014 11015 11015 11015 11015 11015 11015 11015 11015 11015 11015 11014 11014 11013
11028 11028 11029 11029 11030 11031 11032 11033 11034 11035 11035 11036 11036 11036 11037 11037 11036 11036 11036 11035 11035 11035 11035 11035 11034 11034 11033 11033 11032 11032 11031 11030 11030 11029 11028 11028 11027 11026 11026 11025 11024 11023 11023 11022 11022 11022 11022 11021 11021 11021 11021 11021 11021 11021 11021 11021 11020 11020 11020 11019 11019 11019 11018 11018 11018 11017 11017 11018 11018 11018 11018 11019 11019 11019 11019 11019 11019 11019 11019 11019 11018 11018 11018 11017 11017
11027 11028 11028 11028 11029 11030 11031 11032 11033 11033 11034 11034 11035 11035 11036 11036 11037 11036 11036 11036 11036 11036 11036 11035 11035 11034 11034 11033 11033 11032 11032 11031 11031 11030 11030 11029 11029 11028 11028 11027 11027 11026 11025 11025 11024 11024 11024 11024 11024 11024 11024 11024 11024 11024 11024 11024 11024 11024 11023 11023 11023 11023 11023 11023 11023 11022 11022 11022 11022 11022 11022 11022 11022 11023 11023 11023 11023 11023 11022 11022 11022 11021 11021 11020 11020
11025 11026 11027 11027 11028 11029 11030 11031 11032 11032 11033 11033 11034 11034 11034 11035 11036 11036 11036 11036 11036 11036 11036 11035 11035 11035 11034 11034 11033 11033 11032 11032 11032 11032 11031 11031 11030 11030 11030 11029 11029 11029 11028 11028 11027 11027 11027 11027 11027 11027 11027 11027 11027 11027 11027 11027 11027 11027 11027 11027 11027 11027 11027 11027 11026 11026 11026 11026 11026 11026 11026 11026 11026 11026 11026 11026 11026 11025 11025 11025 11024 11024 11023 11023 11022
11022 11023 11024 11025 11026 11027 11028 11029 11030 11031 11031 11032 11032 11033 11033 11033 11034 11034 11035 11035 11035 11035 11036 11036 11035 11035 11035 11034 11033 11033 11032 11032 11032 11033 11032 11032 11032 11031 11031 11031 11031 11030 11030 11030 11029 11029 11029 11029 11029 11029 11029 11029 11029 11029 11029 11029 11029 11029 11029 11029 11029 11029 11029 11029 11029 11029 11029 11030 11029 11029 11029 11029 11029 11029 11028 11028 11028 11028 11027 11027 11027 11026 11026 11025 11025
11020 11020 11021 11022 11024 11025 11026 11027 11028 11029 11029 11029 11030 11031 11032 11032 11032 11033 11033 11033 11034 11034 11035 11035 11035 11035 11035 11034 11034 11033 11033 11032 11032 11032 11033 11033 11033 11033 11032 11032 11032 11032 11031 11031 11031 11031 11031 11031 11031 11031 11031 11031 11031 11031 11031 11031 11031 11031 11031 11031 11031 11031 11031 11031 11032 11032 11032 11032 11032 11032 11031 11031 11031 11031 11030 11030 11030 11029 11029 11029 11028 11028 11028 11027 11027
11017 11018 11019 11020 11021 11022 11023 11024 11025 11026 11027 11027 11027 11028 11030 11031 11031 11031 11032 11032 11032 11032 11033 11033 11034 11034 11034 11034 11034 11034 11034 11033 11032 11032 11032 11033 11033 11034 11034 11033 11033 11032 11032 11032 11032 11032 11032 11032 11033 11033 11033 11033 11033 11033 11032 11032 11032 11032 11032 11032 11032 11032 11033 11033 11033 11033 11033 11033 11033 11033 11033 11033 11033 11032 11032 11032 11031 11031 11030 11030 11030 11029 11029 11029 11028
11013 11015 11016 11017 11018 11019 11020 11021 11022 11023 11024 11025 11025 11026 11028 11029 11030 11030 11030 11031 11030 11030 11031 11031 11032 11032 11032 11033 11033 11033 11033 11034 11033 11032 11032 11031 11032 11033 11034 11034 11034 11034 11033 11033 11032 11032 11032 11033 11033 11034 11034 11034 11034 11034 11034 11034 11033 11033 11033 11033 11033 11033 11033 11033 11034 11034 11034 11034 11034 11034 11034 11034 11034 11033 11033 11033 11032 11032 11032 11031 11031 11031 11030 11030 11030
11009 11010 11012 11013 11014 11015 11016 11017 11018 11019 11021 11022 11023 11024 11025 11027 11028 11028 11029 11029 11029 11029 11029 11030 11030 11031 11031 11031 11031 11032 11032 11033 11033 11033 11032 11032 11031 11032 11032 11033 11034 11034 11034 11033 11033 11033 11032 11032 11033 11033 11033 11034 11034 11035 11035 11035 11035 11034 11034 11034 11034 11034 11034 11034 11034 11034 11034 11034 11035 11035 11035 11034 11034 11034 11034 11033 11033 11033 11032 11032 11032 11031 11031 11031 11030
11003 11005 11007 11008 11010 11011 11012 11013 11014 11016 11018 11019 11020 11022 11023 11024 11025 11026 11027 11027 11028 11028 11028 11029 11029 11030 11030 11030 11030 11031 11031 11031 11032 11032 11032 11032 11031 11031 11031 11031 11032 11032 11033 11033 11033 11033 11032 11032 11032 11032 11033 11033 11033 11034 11034 11034 11034 11034 11034 11034 11034 11034 11034 11034 11034 11034 11035 11035 11035 11035 11035 11035 11034 11034 11034 11034 11034 11033 11033 11033 11032 11032 11032 11031 11031
10996 10998 11001 11003 11004 11006 11007 11009 11010 11012 11014 11015 11017 11018 11019 11020 11021 11022 11023 11024 11025 11026 11027 11027 11027 11028 11028 11028 11029 11029 11030 11030 11030 11030 11031 11031 11031 11030 11030 11031 11031 11031 11031 11031 11032 11032 11032 11032 11032 11032 11032 11032 11032 11033 11033 11033 11033 11033 11033 11033 11033 11034 11034 11034 11034 11034 11034 11034 11035 11035 11035 11035 11035 11034 11034 11034 11034 11034 11033 11033 11032 11032 11032 11031 11031
10989 10992 10995 10997 10999 11001 11003 11004 11006 11008 11009 11011 11012 11013 11014 11016 11017 11018 11019 11020 11021 11023 11024 11024 11024 11025 11025 11026 11026 11027 11028 11028 11028 11027 11027 11028 11028 11029 11029 11030 11030 11030 11030 11030 11030 11030 11030 11030 11031 11031 11031 11031 11032 11031 11031 11031 11031 11031 11032 11032 11032 11032 11032 11033 11033 11033 11033 11033 11033 11034 11034 11034 11034 11034 11033 11033 11033 11033 11033 11033 11032 11032 11031 11031 11031
10985 10987 10989 10991 10993 10996 10998 11000 11001 11002 11004 11005 11007 11008 11009 11011 11013 11014 11015 11016 11017 11018 11020 11020 11021 11021 11022 11022 11023 11025 11025 11025 11025 11025 11025 11025 11025 11026 11027 11028 11029 11029 11029 11029 11029 11029 11029 11029 11029 11030 11030 11030 11030 11030 11030 11030 11030 11030 11030 11030 11031 11031 11031 11031 11032 11032 11032 11032 11032 11032 11032 11032 11032 11032 11032 11032 11032 11031 11031 11031 11031 11030 11030 11029 11029
10980 10982 10984 10986 10988 10990 10992 10994 10996 10997 10998 11000 11002 11003 11004 11006 11008 11009 11010 11011 11012 11013 11014 11016 11017 11017 11018 11018 11019 11021 11021 11022 11022 11022 11023 11023 11023 11023 11024 11024 11025 11027 11028 11028 11027 11027 11027 11027 11027 11028 11028 11028 11029 11029 11029 11029 11029 11029 11029 11029 11030 11030 11030 11030 11030 11030 11030 11030 11030 11030 11030 11030 11030 11030 11030 11030 11029 11029 11029 11029 11029 11028 11028 11027 11027
10975 10977 10979 10981 10983 10984 10986 10988 10990 10991 10993 10995 10997 10998 10999 11001 11003 11004 11005 11006 11007 11008 11009 11011 11012 11013 11014 11014 11015 11017 11017 11018 11018 11019 11020 11020 11020 11020 11021 11021 11022 11023 11024 11025 11025 11025 11024 11024 11024 11024 11025 11025 11026 11026 11027 11027 11027 11028 11028 11028 11028 11028 11028 11028 11027 11027 11028 11028 11028 11028 11028 11028 11028 11028 11027 11027 11027 11027 11026 11025 11025 11025 11025 11025 11024
10970 10972 10974 10976 10977 10978 10979 10981 10984 10985 10987 10989 10991 10993 10994 10996 10998 10998 11000 11001 11002 11003 11004 11006 11007 11008 11009 11010 11011 11012 11013 11014 11015 11016 11017 11017 11017 11017 11017 11018 11019 11020 11021 11021 11022 11022 11022 11022 11022 11021 11022 11022 11023 11023 11024 11025 11025 11026 11026 11026 11026 11026 11026 11025 11024 11024 11025 11026 11026 11026 11025 11025 11025 11025 11025 11024 11024 11023 11023 11023 11022 11022 11022 11023 11022
10963 10964 10966 10969 10970 10969 10971 10975 10978 10979 10981 10983 10985 10986 10988 10990 10991 10992 10994 10995 10997 10998 10999 11001 11002 11003 11004 11005 11007 11008 11008 11009 11011 11012 11012 11012 11012 11013 11013 11014 11015 11016 11017 11018 11018 11019 11019 11019 11019 11019 11019 11019 11020 11020 11020 11021 11023 11024 11024 11025 11025 11025 11024 11023 11022 11022 11023 11023 11023 11023 11023 11023 11022 11022 11022 11022 11021 11021 11020 11020 11020 11019 11019 11020 11020
10955 10956 10958 10962 10962 10963 10966 10970 10972 10974 10975 10977 10979 10980 10981 10984 10985 10986 10987 10988 10989 10991 10993 10995 10997 10998 10999 11000 11002 11003 11004 11004 11006 11007 11007 11008 11008 11008 11009 11010 11011 11012 11013 11014 11014 11015 11015 11015 11015 11015 11015 11016 11016 11017 11017 11017 11019 11020 11021 11022 11023 11023 11023 11021 11021 11021 11021 11020 11020 11020 11020 11020 11020 11020 11020 11020 11019 11018 11018 11018 11018 11017 11017 11017 11018
10947 10948 10951 10953 10955 10957 10960 10963 10965 10968 10969 10971 10973 10974 10975 10977 10979 10980 10980 10981 10982 10985 10987 10989 10991 10993 10994 10995 10996 10997 10998 10999 11000 11001 11002 11003 11003 11004 11004 11005 11007 11008 11009 11010 11011 11011 11011 11011 11012 11012 11012 11012 11013 11013 11013 11014 11014 11016 11017 11018 11019 11020 11021 11020 11019 11018 11018 11017 11017 11017 11017 11018 11018 11018 11017 11017 11017 11016 11015 11014 11014 11015 11015 11015 11015
10939 10940 10943 10945 10947 10950 10953 10955 10957 10960 10963 10965 10967 10968 10969 10971 10972 10973 10974 10975 10976 10978 10981 10983 10985 10986 10987 10989 10990 10991 10992 10993 10994 10995 10996 10997 10998 10998 10999 11000 11001 11003 11004 11005 11006 11007 11007 11007 11007 11007 11008 11008 11009 11009 11009 11010 11010 11011 11013 11014 11015 11016 11017 11017 11016 11016 11015 11014 11014 11014 11014 11015 11015 11015 11015 11015 11015 11014 11013 11012 11011 11012 11012 11012 11012
10931 10933 10935 10938 10940 10942 10945 10946 10948 10952 10955 10958 10960 10961 10963 10964 10965 10966 10967 10968 10970 10972 10974 10976 10978 10980 10981 10982 10983 10985 10986 10986 10987 10989 10990 10991 10991 10992 10993 10995 10996 10997 10998 10999 11000 11001 11002 11002 11002 11003 11003 11004 11004 11005 11005 11006 11006 11007 11008 11009 11010 11011 11012 11013 11013 11013 11012 11011 11011 11011 11010 11011 11011 11012 11012 11012 11012 11012 11011 11010 11009 11009 11009 11008 11008
10923 10925 10927 10930 10932 10935 10937 10938 10940 10943 10947 10949 10951 10953 10955 10956 10958 10959 10961 10962 10963 10965 10966 10969 10971 10972 10974 10975 10976 10977 10979 10980 10981 10982 10983 10984 10985 10985 10987 10988 10990 10991 10992 10993 10994 10995 10996 10996 10997 10997 10998 10999 11000 11000 11000 11001 11002 11003 11004 11004 11005 11006 11007 11008 11009 11009 11009 11008 11008 11007 11007 11007 11008 11008 11008 11008 11009 11009 11009 11008 11008 11007 11006 11005 11005
10914 10916 10918 10921 10923 10926 10928 10929 10931 10934 10938 10940 10943 10945 10946 10948 10949 10951 10953 10954 10956 10958 10959 10961 10963 10965 10966 10968 10969 10970 10972 10973 10973 10974 10976 10977 10978 10979 10980 10982 10984 10984 10985 10986 10987 10988 10989 10990 10991 10991 10993 10994 10994 10995 10995 10995 10996 10998 10999 11000 11000 11001 11001 11002 11003 11004 11004 11004 11004 11003 11003 11003 11004 11003 11003 11004 11004 11004 11005 11005 11005 11005 11004 11002 11001
10904 10907 10909 10911 10914 10917 10920 10921 10922 10925 10928 10931 10933 10935 10937 10939 10940 10942 10944 10946 10948 10950 10951 10953 10954 10956 10958 10959 10961 10963 10964 10965 10966 10967 10968 10969 10971 10972 10974 10976 10977 10978 10978 10979 10980 10981 10982 10983 10983 10984 10985 10987 10988 10988 10989 10989 10990 10991 10993 10994 10995 10996 10996 10997 10997 10998 10998 10999 10999 10999 10998 10998 10999 10999 10999 10999 10999 11000 11000 11001 11001 11001 11001 11000 10998
10893 10895 10898 10901 10904 10907 10909 10912 10913 10915 10917 10921 10924 10925 10927 10929 10931 10933 10935 10937 10939 10941 10942 10944 10945 10947 10949 10950 10952 10954 10956 10958 10958 10959 10960 10962 10963 10965 10967 10968 10969 10970 10971 10972 10973 10974 10974 10975 10976 10977 10978 10979 10980 10981 10982 10983 10983 10985 10986 10987 10989 10990 10991 10992 10992 10992 10992 10993 10993 10993 10993 10993 10993 10994 10994 10994 10995 10995 10996 10996 10996 10996 10996 10996 10995
10882 10884 10886 10889 10892 10896 10898 10901 10903 10905 10907 10909 10912 10915 10917 10918 10920 10923 10925 10927 10929 10931 10933 10934 10936 10938 10940 10941 10943 10945 10947 10949 10950 10951 10952 10953 10955 10957 10959 10960 10961 10962 10963 10964 10965 10966 10966 10966 10968 10969 10971 10973 10973 10974 10975 10976 10976 10977 10979 10980 10981 10983 10984 10985 10986 10986 10987 10987 10987 10987 10987 10987 10987 10987 10988 10988 10989 10990 10990 10991 10990 10990 10991 10991 10990
10870 10873 10875 10877 10879 10883 10886 10890 10892 10894 10896 10898 10901 10904 10907 10908 10910 10913 10915 10918 10920 10922 10923 10925 10927 10929 10931 10933 10934 10936 10938 10939 10941 10942 10943 10944 10946 10948 10950 10951 10953 10954 10955 10956 10957 10958 10958 10958 10959 10960 10962 10964 10966 10966 10967 10967 10968 10969 10970 10972 10973 10975 10976 10978 10979 10980 10980 10980 10980 10980 10980 10980 10981 10981 10981 10982 10982 10983 10984 10985 10985 10985 10985 10985 10985
10858 10861 10863 10866 10867 10870 10874 10877 10881 10883 10885 10887 10889 10892 10895 10898 10900 10902 10905 10907 10910 10912 10913 10915 10917 10919 10922 10924 10926 10927 10928 10929 10931 10932 10934 10935 10937 10938 10940 10942 10943 10945 10946 10947 10948 10949 10949 10949 10950 10951 10952 10954 10956 10957 10958 10959 10960 10961 10962 10963 10965 10966 10968 10969 10971 10972 10973 10973 10974 10974 10974 10974 10974 10974 10974 10974 10975 10975 10976 10977 10978 10978 10979 10979 10978
10847 10849 10851 10854 10857 10860 10862 10864 10868 10871 10873 10876 10878 10880 10883 10886 10888 10891 10893 10896 10898 10900 10902 10904 10906 10908 10911 10913 10916 10918 10919 10920 10921 10922 10924 10925 10927 10929 10930 10932 10933 10935 10935 10937 10938 10939 10940 10940 10940 10941 10942 10943 10944 10946 10948 10949 10950 10951 10952 10954 10955 10957 10958 10960 10961 10963 10964 10965 10966 10966 10967 10967 10967 10967 10967 10967 10967 10968 10968 10969 10970 10971 10971 10971 10971
10834 10836 10839 10842 10845 10848 10850 10852 10855 10858 10861 10864 10866 10869 10871 10874 10876 10879 10881 10884 10886 10889 10890 10892 10894 10896 10898 10901 10904 10907 10909 10910 10911 10912 10913 10915 10917 10918 10920 10921 10922 10924 10925 10926 10927 10929 10929 10930 10931 10931 10932 10932 10933 10935 10936 10938 10939 10940 10941 10942 10944 10946 10948 10949 10951 10952 10954 10956 10957 10957 10959 10960 10960 10960 10960 10961 10960 10960 10960 10961 10961 10962 10963 10963 10963
10819 10822 10826 10829 10832 10835 10838 10841 10843 10846 10849 10851 10854 10857 10859 10862 10864 10867 10869 10871 10874 10877 10878 10880 10882 10884 10886 10889 10892 10894 10897 10899 10901 10902 10903 10904 10905 10907 10908 10910 10911 10912 10913 10914 10916 10917 10918 10919 10920 10920 10921 10922 10923 10924 10925 10926 10927 10929 10930 10931 10932 10934 10936 10937 10939 10940 10942 10944 10945 10947 10949 10951 10952 10952 10952 10953 10952 10952 10952 10952 10952 10953 10954 10954 10954
10805 10808 10812 10816 10820 10822 10825 10828 10831 10834 10836 10838 10841 10843 10846 10849 10851 10854 10856 10859 10861 10864 10866 10867 10869 10871 10873 10876 10878 10881 10884 10886 10889 10891 10893 10894 10895 10895 10896 10897 10899 10900 10901 10902 10903 10904 10905 10906 10907 10908 10909 10911 10912 10913 10914 10915 10916 10917 10918 10919 10921 10922 10923 10925 10927 10928 10930 10931 10932 10934 10936 10938 10940 10942 10943 10944 10943 10943 10943 10943 10943 10943 10944 10945 10945
10790 10794 10798 10802 10806 10810 10812 10815 10818 10820 10823 10825 10827 10830 10832 10835 10838 10840 10843 10845 10848 10850 10852 10854 10856 10858 10860 10861 10864 10866 10870 10873 10876 10879 10881 10883 10884 10884 10884 10885 10886 10887 10888 10889 10891 10892 10893 10894 10895 10896 10897 10898 10899 10901 10902 10903 10904 10905 10906 10907 10908 10909 10910 10912 10913 10915 10917 10919 10920 10921 10922 10924 10926 10928 10930 10932 10933 10934 10934 10933 10933 10933 10934 10934 10935
10776 10779 10783 10787 10791 10795 10799 10802 10804 10806 10809 10811 10813 10815 10818 10821 10824 10826 10829 10831 10834 10836 10837 10839 10841 10843 10845 10847 10849 10851 10854 10857 10861 10864 10868 10870 10871 10872 10872 10873 10873 10874 10875 10876 10878 10879 10880 10881 10883 10884 10885 10885 10887 10888 10889 10891 10892 10893 10894 10895 10896 10896 10897 10898 10899 10901 10902 10904 10906 10908 10910 10911 10912 10914 10916 10918 10919 10921 10923 10923 10923 10923 10923 10923 10924
10760 10764 10768 10772 10776 10780 10783 10786 10789 10792 10794 10796 10799 10801 10804 10806 10809 10811 10814 10816 10819 10821 10822 10824 10826 10828 10831 10833 10835 10837 10839 10841 10843 10846 10850 10853 10856 10858 10859 10860 10860 10861 10862 10862 10863 10865 10866 10868 10869 10870 10871 10873 10873 10874 10875 10876 10877 10879 10880 10881 10882 10883 10884 10885 10886 10887 10888 10889 10891 10893 10896 10898 10899 10901 10903 10904 10905 10906 10908 10910 10911 10912 10912 10912 10912
10744 10748 10752 10756 10759 10763 10767 10770 10773 10776 10778 10781 10784 10787 10789 10792 10794 10796 10798 10800 10803 10804 10806 10808 10811 10814 10816 10818 10821 10822 10824 10825 10827 10829 10831 10834 10837 10840 10843 10845 10846 10847 10847 10847 10848 10849 10851 10852 10853 10854 10856 10857 10859 10859 10860 10861 10862 10863 10864 10866 10867 10868 10869 10870 10872 10873 10874 10875 10876 10878 10880 10882 10884 10886 10889 10891 10892 10892 10893 10895 10897 10899 10899 10900 10901
10727 10731 10735 10739 10743 10746 10750 10754 10757 10759 10762 10765 10768 10771 10774 10776 10778 10781 10783 10784 10786 10787 10789 10791 10794 10798 10801 10804 10806 10807 10807 10808 10811 10813 10815 10816 10818 10821 10823 10826 10828 10830 10831 10831 10832 10834 10835 10835 10836 10838 10839 10841 10842 10843 10844 10846 10847 10848 10849 10850 10851 10852 10853 10854 10856 10857 10859 10860 10861 10862 10863 10865 10867 10870 10873 10875 10877 10877 10878 10879 10881 10883 10884 10885 10886
10710 10714 10718 10722 10726 10730 10733 10737 10740 10743 10745 10748 10751 10754 10757 10760 10762 10764 10766 10768 10768 10770 10771 10774 10776 10780 10784 10787 10790 10791 10791 10792 10794 10796 10798 10800 10801 10803 10804 10806 10808 10810 10812 10813 10815 10816 10817 10818 10819 10821 10822 10823 10825 10826 10827 10829 10831 10833 10834 10835 10836 10836 10837 10838 10839 10840 10842 10843 10845 10846 10847 10848 10850 10852 10855 10857 10859 10861 10862 10864 10865 10867 10868 10869 10870
10693 10697 10701 10705 10709 10712 10716 10719 10722 10725 10728 10731 10734 10737 10740 10742 10745 10747 10749 10750 10752 10753 10754 10756 10759 10762 10765 10767 10770 10772 10774 10776 10776 10777 10779 10781 10783 10786 10788 10789 10790 10791 10792 10794 10795 10797 10799 10800 10801 10803 10804 10805 10806 10808 10810 10812 10813 10815 10817 10819 10820 10821 10822 10822 10823 10824 10825 10826 10827 10828 10830 10831 10833 10834 10837 10839 10841 10843 10845 10847 10848 10850 10852 10853 10854
10676 10680 10684 10688 10692 10695 10699 10701 10704 10707 10710 10713 10716 10719 10722 10725 10727 10730 10732 10733 10735 10736 10738 10740 10742 10744 10746 10748 10750 10752 10755 10756 10757 10759 10761 10763 10765 10768 10771 10772 10772 10773 10773 10775 10776 10777 10779 10780 10782 10783 10785 10786 10787 10788 10791 10793 10795 10797 10799 10801 10802 10804 10805 10806 10807 10808 10809 10809 10810 10810 10811 10813 10815 10817 10818 10820 10822 10825 10828 10830 10831 10833 10834 10836 10838
10658 10662 10667 10671 10674 10678 10681 10684 10687 10689 10692 10695 10698 10701 10704 10707 10709 10711 10713 10715 10717 10719 10721 10722 10724 10726 10728 10730 10731 10733 10734 10736 10738 10740 10742 10744 10747 10749 10751 10753 10754 10754 10755 10756 10757 10758 10759 10760 10762 10763 10764 10766 10767 10769 10770 10773 10775 10778 10780 10782 10783 10785 10787 10788 10789 10790 10792 10793 10793 10793 10794 10795 10796 10798 10800 10802 10804 10807 10809 10812 10814 10815 10817 10819 10821
10640 10644 10648 10652 10656 10659 10662 10666 10669 10671 10674 10676 10679 10682 10685 10688 10690 10693 10695 10697 10699 10701 10702 10704 10706 10708 10710 10712 10713 10714 10714 10716 10718 10720 10722 10725 10727 10729 10731 10733 10734 10735 10736 10736 10737 10738 10739 10740 10742 10743 10744 10746 10748 10749 10751 10752 10754 10757 10759 10761 10763 10766 10768 10769 10771 10772 10773 10775 10776 10776 10777 10777 10778 10780 10782 10784 10785 10788 10791 10793 10795 10797 10798 10801 10803
10623 10626 10630 10634 10637 10640 10643 10646 10649 10652 10655 10658 10661 10663 10666 10669 10672 10674 10676 10678 10680 10682 10683 10685 10687 10689 10691 10694 10695 10695 10695 10695 10697 10699 10701 10703 10705 10708 10710 10711 10713 10714 10715 10716 10717 10718 10719 10720 10721 10722 10724 10726 10728 10729 10731 10732 10734 10736 10739 10741 10743 10745 10747 10749 10752 10753 10754 10756 10757 10758 10759 10759 10760 10761 10763 10764 10766 10769 10772 10775 10776 10778 10780 10782 10784
10606 10609 10612 10616 10619 10622 10625 10627 10630 10633 10636 10639 10642 10645 10648 10650 10653 10655 10657 10659 10661 10663 10665 10666 10668 10670 10672 10674 10675 10676 10676 10676 10676 10677 10679 10681 10683 10686 10688 10690 10691 10693 10694 10695 10696 10697 10698 10699 10701 10702 10704 10705 10707 10708 10710 10711 10714 10716 10718 10721 10723 10725 10726 10728 10730 10732 10734 10736 10738 10739 10740 10740 10741 10742 10743 10744 10746 10749 10752 10754 10756 10759 10761 10764 10766
10589 10592 10595 10598 10601 10604 10607 10609 10612 10614 10617 10620 10623 10626 10628 10631 10633 10636 10638 10640 10642 10644 10646 10647 10648 10650 10652 10653 10655 10656 10657 10656 10656 10657 10658 10659 10661 10664 10666 10668 10669 10671 10672 10673 10675 10676 10676 10678 10679 10681 10682 10683 10685 10686 10688 10690 10692 10694 10696 10699 10701 10703 10705 10708 10710 10711 10713 10714 10717 10718 10720 10720 10721 10722 10723 10724 10726 10728 10731 10733 10735 10737 10740 10743 10746
10571 10575 10578 10581 10584 10586 10589 10591 10594 10596 10599 10601 10604 10607 10609 10611 10613 10615 10617 10619 10621 10623 10625 10627 10628 10629 10631 10632 10634 10635 10636 10637 10637 10637 10638 10639 10640 10642 10644 10646 10647 10648 10650 10651 10652 10654 10655 10656 10656 10657 10659 10660 10662 10664 10665 10667 10669 10671 10673 10676 10678 10680 10682 10685 10688 10690 10691 10693 10695 10697 10698 10700 10701 10701 10701 10702 10704 10707 10710 10712 10714 10715 10717 10721 10724
10555 10558 10561 10564 10566 10569 10571 10574 10576 10578 10580 10583 10585 10588 10590 10592 10594 10595 10597 10599 10600 10602 10603 10605 10607 10608 10609 10611 10612 10613 10615 10616 10617 10617 10618 10618 10619 10621 10622 10623 10624 10625 10627 10628 10629 10631 10632 10633 10634 10635 10636 10637 10639 10640 10642 10644 10646 10647 10649 10652 10654 10656 10658 10661 10663 10665 10668 10670 10673 10674 10676 10678 10680 10680 10680 10680 10681 10683 10686 10689 10692 10693 10695 10698 10702
10538 10541 10543 10546 10548 10551 10553 10556 10558 10560 10562 10565 10567 10569 10571 10573 10575 10576 10578 10579 10580 10581 10582 10584 10585 10586 10588 10588 10589 10591 10592 10594 10595 10596 10596 10597 10598 10599 10600 10601 10601 10602 10603 10604 10606 10607 10609 10610 10611 10612 10614 10615 10616 10618 10619 10621 10622 10624 10626 10628 10630 10632 10633 10635 10638 10640 10642 10646 10648 10650 10652 10655 10657 10658 10658 10658 10657 10659 10661 10664 10667 10669 10672 10675 10678
10523 10525 10527 10529 10532 10533 10535 10538 10540 10542 10544 10546 10549 10551 10553 10554 10556 10557 10559 10560 10561 10562 10563 10564 10565 10565 10566 10567 10567 10568 10569 10571 10572 10573 10574 10575 10575 10576 10577 10577 10578 10579 10580 10581 10582 10583 10585 10587 10589 10590 10592 10593 10594 10595 10597 10598 10599 10601 10603 10604 10606 10606 10607 10609 10611 10613 10616 10619 10622 10624 10626 10629 10632 10633 10634 10634 10634 10636 10637 10639 10641 10644 10646 10650 10653
10507 10509 10512 10514 10516 10517 10519 10520 10522 10524 10526 10529 10531 10533 10534 10536 10537 10539 10540 10541 10542 10542 10543 10544 10544 10545 10545 10546 10547 10547 10548 10549 10550 10551 10552 10553 10553 10553 10554 10554 10554 10555 10556 10557 10558 10560 10562 10564 10566 10568 10570 10571 10572 10573 10574 10575 10576 10577 10579 10580 10581 10581 10582 10582 10583 10585 10587 10590 10594 10596 10599 10602 10604 10606 10608 10609 10610 10612 10614 10616 10617 10619 10621 10624 10628